Wind_Speed
13 13 13 12 13 12 10 10 10 11 11 11 10 10 10 10 10 10 10 9 8 8 8 7 6 6 6 6 5 5 6 6 6 6 5 5 5 5 6 6 6 5 4 4 4 5 6 7 7
13 13 13 13 14 11 11 11 11 11 11 11 11 11 10 10 10 10 10 10 9 8 7 7 6 6 6 6 5 5 6 6 6 5 6 5 5 5 5 5 5 4 4 3 4 4 5 6 7
13 13 13 14 12 12 11 11 12 12 11 12 12 11 11 10 11 10 10 10 9 8 7 7 7 7 6 6 6 6 6 6 5 6 6 6 5 5 5 5 5 4 3 3 3 3 4 5 6
13 12 13 13 11 11 12 12 12 12 12 12 12 11 11 10 10 10 9 9 8 8 7 7 7 7 7 7 6 6 5 5 5 5 6 6 5 5 5 5 5 4 3 3 2 2 3 3 4
13 14 13 11 11 11 11 12 12 12 12 11 11 10 11 11 10 10 9 9 8 8 7 7 7 7 7 6 6 6 5 5 5 5 5 6 6 5 4 5 5 5 3 2 2 2 3 3 5
14 15 13 11 11 11 11 11 11 11 11 10 10 11 10 10 10 10 9 8 8 7 7 6 7 7 7 6 6 6 6 5 5 5 5 5 5 5 5 5 5 4 3 2 3 4 4 3 3
14 14 13 12 11 11 11 10 10 10 10 10 10 10 10 9 9 9 8 8 8 8 7 7 6 6 6 6 6 6 6 6 6 5 5 5 5 5 5 5 4 4 4 4 4 4 4 3 2
13 13 13 13 12 11 10 10 10 10 10 10 10 10 9 9 9 8 8 8 8 8 7 7 7 7 7 6 6 6 6 6 6 6 5 5 5 5 5 5 5 5 5 5 4 3 3 3 2
12 12 11 11 11 11 11 11 11 10 10 10 10 10 10 9 8 8 8 8 8 7 7 7 7 7 7 7 7 6 5 5 6 6 5 5 5 5 5 5 5 5 5 4 4 4 4 3 3
11 11 11 10 10 10 10 11 12 12 11 10 10 10 10 10 9 8 8 8 8 8 8 7 7 7 7 7 7 6 6 6 5 5 5 5 5 5 6 6 5 4 4 3 3 3 3 3 3
10 10 10 9 9 10 10 11 11 12 12 11 10 10 10 10 9 9 8 8 7 7 7 7 7 7 7 7 7 7 6 6 5 6 6 6 5 5 6 5 5 4 3 3 3 2 2 3 3
9 8 8 8 8 10 10 11 11 11 11 10 10 10 10 10 9 9 8 8 8 7 7 8 8 7 7 6 6 6 7 6 6 6 7 7 6 6 5 4 4 3 4 3 3 3 3 3 3
8 7 7 7 8 8 10 10 10 10 10 9 9 9 10 10 9 9 8 8 8 7 7 7 7 7 7 7 6 6 5 5 5 5 7 6 6 5 5 4 4 4 4 4 3 2 2 2 2
7 7 6 6 7 7 8 9 9 9 9 9 9 9 9 9 9 9 9 8 8 7 7 6 6 6 6 5 5 6 5 5 5 5 6 5 5 5 5 4 4 4 4 3 2 2 2 3 3
5 6 5 5 5 6 7 7 7 8 8 8 8 8 8 8 8 8 9 9 8 7 6 6 6 6 5 5 5 5 4 5 5 5 6 5 5 5 3 3 3 3 3 2 2 3 3 3 3
3 4 3 3 4 4 5 6 6 6 7 7 7 7 7 7 7 7 8 8 8 7 6 6 6 6 6 5 5 5 4 4 4 5 5 5 5 5 4 3 2 2 2 2 2 3 3 3 3
2 2 2 1 2 3 4 4 5 5 6 6 6 7 7 7 7 7 7 7 7 6 6 6 6 6 6 6 5 5 4 4 4 4 4 5 5 5 5 4 4 3 3 3 2 2 3 3 4
1 2 1 0 1 2 2 3 4 4 5 5 5 6 6 6 7 7 7 7 6 6 5 5 6 6 5 5 5 5 5 5 5 4 4 5 5 5 4 4 4 4 3 3 3 3 3 4 5
3 2 1 1 0 0 1 2 3 3 4 4 4 5 5 5 6 6 7 7 6 6 5 5 5 5 5 5 5 5 6 5 5 5 4 5 5 5 4 5 5 4 3 3 3 4 4 5 6
3 2 2 2 1 0 1 2 3 3 3 3 4 4 4 5 5 5 6 6 6 5 5 4 4 4 4 4 5 5 5 5 5 5 5 5 5 5 5 5 5 5 4 4 5 5 6 6 7
4 4 3 2 2 1 1 3 3 2 3 3 4 4 4 4 4 5 5 5 5 5 4 4 3 3 4 4 4 4 5 5 5 5 5 5 5 5 5 5 5 5 5 5 6 6 6 7 8
5 5 4 3 3 3 2 3 4 4 3 4 4 5 5 4 4 5 5 5 5 4 4 4 3 3 3 3 3 4 4 4 4 4 5 5 5 4 4 5 5 5 5 6 6 7 7 8 8
7 7 6 5 4 5 5 4 5 5 4 4 5 5 5 5 4 4 5 5 4 4 4 3 3 2 1 2 3 3 4 4 4 4 5 5 5 5 5 5 6 6 6 7 7 8 8 9 9
9 8 7 7 6 7 7 5 5 6 5 4 5 6 5 5 5 5 5 5 4 4 4 4 3 3 2 2 2 3 4 4 4 5 6 6 6 6 6 6 7 7 7 8 9 9 10 10 11
10 8 8 8 8 9 8 7 7 7 6 6 6 7 6 6 6 6 6 5 5 5 5 5 5 5 4 3 3 3 4 4 5 5 6 7 7 7 7 7 8 9 9 9 10 11 11 11 11
11 10 10 9 9 9 10 9 9 8 7 7 7 7 7 7 7 7 7 7 7 7 7 6 6 5 4 4 4 4 5 5 6 6 7 7 8 8 8 9 9 10 11 11 11 12 12 12 13
13 12 11 10 11 10 10 11 10 11 9 8 7 7 8 8 9 9 9 8 8 8 8 8 8 7 7 6 6 6 6 6 7 7 8 8 9 9 10 10 10 11 12 12 13 13 13 13 14
15 13 12 12 12 11 11 11 11 11 10 9 9 9 9 9 9 9 9 9 10 10 10 10 10 9 8 7 6 7 7 8 8 8 9 10 11 10 11 12 12 13 14 14 15 14 15 15 16
16 15 14 13 13 11 11 11 12 12 11 10 9 9 10 10 10 10 10 11 11 12 12 11 11 10 10 9 8 8 8 10 9 9 10 11 11 12 12 13 14 14 15 16 16 16 16 16 16
18 17 16 15 15 13 12 13 13 12 12 12 11 11 11 11 11 12 12 13 13 13 13 12 12 11 11 11 11 11 11 11 11 11 11 12 13 13 14 15 16 16 17 17 18 18 18 18 18
Wind_Direction
76 79 79 82 80 80 87 89 93 93 89 85 84 85 85 88 85 85 85 85 85 86 82 81 83 82 86 97 110 117 123 121 125 129 131 137 149 161 166 165 162 162 169 188 192 202 214 222 223
75 78 80 82 83 84 87 88 92 92 89 88 87 86 85 85 85 85 85 83 83 86 85 83 83 81 87 94 98 110 124 123 121 120 125 128 135 152 164 166 164 167 172 183 195 204 219 227 230
77 79 82 82 84 88 90 91 92 92 90 88 89 85 83 80 81 81 81 83 83 82 81 81 80 80 86 95 103 107 111 118 118 116 114 114 119 132 151 161 163 169 178 181 199 204 229 229 227
77 82 80 81 85 87 90 92 91 91 90 88 87 86 80 78 78 79 82 82 80 77 77 77 79 80 84 90 102 106 107 107 111 114 110 114 118 132 141 150 156 163 174 184 199 202 225 226 206
78 80 79 82 86 86 88 90 90 90 88 85 87 84 77 77 76 78 80 80 80 76 77 78 81 82 85 91 97 103 105 106 104 105 108 112 121 125 137 154 154 154 159 156 153 153 172 164 169
78 77 80 81 85 87 90 89 84 88 87 82 84 84 79 78 79 77 78 79 80 78 79 79 82 83 85 91 93 100 105 104 101 102 109 108 109 123 137 150 152 159 143 131 129 138 148 150 167
81 79 81 81 79 83 86 87 83 81 83 80 78 81 80 80 80 79 78 76 81 82 78 77 82 81 85 89 94 95 93 100 102 105 106 108 105 108 118 130 137 147 147 131 129 136 131 121 147
83 80 81 82 79 79 81 83 82 80 82 82 79 79 79 79 78 76 74 72 78 79 76 77 80 82 85 87 91 91 89 97 107 107 106 107 107 107 110 115 121 132 138 133 127 123 115 106 145
83 85 87 87 83 79 80 78 76 77 79 79 78 77 74 73 77 76 73 73 73 73 72 75 82 84 86 85 83 84 85 90 106 109 107 109 107 101 100 105 112 125 126 122 121 123 120 121 138
83 90 89 88 85 81 80 76 73 75 76 78 79 77 73 69 71 72 72 72 73 70 69 80 83 86 86 83 80 79 84 84 96 107 109 110 108 102 103 108 112 114 117 119 124 128 120 132 132
87 88 89 86 83 79 76 77 76 74 74 74 75 78 73 65 63 63 65 66 68 67 64 75 82 80 82 81 80 79 80 83 93 104 103 99 102 102 101 110 110 105 111 127 130 137 121 120 118
88 85 86 86 83 78 77 78 75 73 71 73 73 71 66 59 59 60 60 61 67 71 71 72 75 78 84 85 82 82 80 79 85 90 93 99 101 99 97 105 104 110 116 120 122 141 117 93 71
88 87 84 81 81 79 78 77 74 70 70 70 68 63 60 56 54 55 59 60 63 68 70 74 75 72 68 74 79 86 87 79 80 87 98 99 96 96 93 95 105 109 115 122 124 102 62 47 44
89 89 85 78 71 76 76 75 72 69 72 70 65 60 55 52 51 52 55 57 58 62 67 68 67 67 65 72 78 81 80 69 67 84 93 91 91 94 100 98 112 106 110 110 91 52 44 27 28
97 86 79 79 73 72 72 67 65 66 71 69 62 56 50 47 50 49 50 51 54 59 59 58 58 60 63 69 75 73 76 71 67 70 70 70 85 95 102 106 105 95 84 71 36 22 18 18 18
104 87 73 88 87 76 69 53 50 57 63 65 59 52 47 46 47 43 43 44 48 53 54 57 60 59 65 68 67 67 62 61 65 65 61 59 67 75 76 70 67 51 43 35 26 21 14 4 357
115 106 95 84 93 68 64 50 38 48 55 58 54 49 48 47 44 40 40 40 42 45 53 59 62 62 64 63 61 61 65 62 60 54 43 44 50 57 60 55 47 40 42 34 28 10 4 350 339
191 181 147 52 72 59 59 43 40 40 44 45 44 43 46 44 39 34 34 32 30 34 42 52 57 60 62 63 62 62 62 56 51 49 43 41 39 38 44 48 42 36 33 25 15 4 349 333 326
214 207 226 250 253 87 53 30 27 26 33 35 36 36 35 30 26 23 25 27 26 27 34 43 50 60 57 55 57 57 52 48 46 47 45 36 28 26 30 31 28 25 17 9 357 346 340 332 327
241 235 258 259 283 50 52 354 353 4 10 20 10 12 17 15 10 12 14 20 24 22 24 29 42 53 53 51 54 53 50 47 47 44 41 34 24 22 23 23 21 16 10 359 347 339 335 332 328
256 253 248 251 267 322 353 340 324 335 338 342 340 341 346 349 355 1 5 8 12 14 16 16 22 34 44 47 49 48 46 41 41 40 36 31 26 24 17 18 11 5 360 348 340 337 334 329 325
256 250 245 254 276 295 304 301 294 297 315 322 322 324 324 323 333 344 350 354 2 8 13 8 8 24 37 37 43 37 33 30 30 29 28 23 14 10 6 358 350 350 347 343 340 339 336 331 326
246 245 246 258 268 282 291 284 284 286 292 300 301 307 314 315 319 324 329 335 345 357 4 11 7 355 1 4 11 21 16 12 11 15 15 10 4 359 351 343 341 340 340 338 336 335 333 331 327
243 242 251 267 274 275 276 273 276 280 282 283 283 289 298 305 311 314 321 320 325 335 341 340 342 334 302 303 324 343 354 357 359 3 1 356 351 348 341 332 334 335 333 333 330 327 327 326 325
242 243 258 265 263 270 273 271 272 273 276 276 276 276 285 292 300 303 310 311 305 309 315 318 321 318 295 275 285 308 331 342 341 341 345 348 344 341 337 332 328 327 323 324 324 322 322 322 324
242 240 243 255 263 273 279 278 274 275 278 278 277 276 280 285 292 292 294 297 294 296 299 303 310 310 291 276 278 289 312 322 321 325 329 335 335 333 331 327 323 323 320 319 319 318 315 317 316
245 244 245 252 260 264 272 283 280 278 280 277 273 273 274 278 286 287 285 287 285 288 292 296 298 295 288 280 286 292 304 312 314 315 319 322 325 326 326 324 321 320 319 318 316 315 313 314 314
242 246 250 249 255 265 276 281 283 282 281 274 269 268 268 272 277 278 276 277 280 284 288 294 293 286 286 291 292 291 297 303 305 310 311 313 315 318 319 319 317 317 315 316 317 314 313 312 311
242 247 250 255 256 260 273 276 276 278 276 271 267 268 268 269 270 272 273 273 275 279 285 291 290 285 285 286 288 292 294 298 303 308 307 308 312 315 316 318 316 314 313 312 312 313 313 311 309
241 245 249 254 259 260 264 273 274 276 277 272 270 269 270 270 269 269 270 271 273 274 280 285 285 285 286 287 285 289 292 295 298 304 306 307 308 311 314 315 315 313 311 311 311 311 313 311 308
Height
5896 5896 5896 5896 5897 5897 5896 5896 5895 5894 5893 5893 5892 5891 5890 5890 5890 5891 5888 5886 5885 5885 5884 5884 5883 5883 5882 5882 5881 5881 5881 5881 5881 5880 5880 5880 5880 5880 5881 5881 5881 5881 5881 5881 5881 5881 5882 5882 5883
5898 5898 5898 5898 5899 5899 5898 5897 5896 5895 5895 5893 5893 5892 5891 5890 5890 5889 5887 5887 5886 5886 5885 5885 5884 5884 5883 5882 5882 5881 5881 5881 5881 5881 5880 5880 5880 5880 5880 5881 5881 5882 5882 5882 5882 5882 5881 5881 5881
5900 5900 5901 5901 5900 5900 5900 5899 5898 5897 5896 5895 5894 5893 5893 5892 5891 5890 5889 5888 5888 5887 5886 5885 5885 5885 5884 5883 5883 5882 5882 5882 5882 5882 5881 5880 5880 5880 5880 5881 5882 5882 5882 5882 5882 5881 5880 5880 5879
5902 5902 5903 5903 5902 5902 5901 5900 5899 5898 5897 5896 5896 5895 5894 5893 5892 5891 5890 5889 5889 5888 5888 5887 5886 5886 5885 5884 5883 5883 5883 5883 5883 5883 5882 5881 5881 5881 5881 5881 5882 5882 5882 5882 5881 5881 5879 5878 5877
5904 5904 5906 5905 5904 5903 5903 5901 5900 5900 5899 5898 5897 5896 5895 5894 5893 5892 5891 5891 5890 5890 5889 5888 5888 5887 5886 5885 5885 5884 5884 5884 5884 5883 5883 5882 5882 5882 5882 5882 5883 5882 5882 5882 5881 5881 5880 5878 5877
5907 5907 5908 5907 5906 5905 5904 5903 5902 5901 5900 5899 5899 5898 5897 5896 5895 5894 5893 5892 5892 5891 5890 5890 5889 5888 5887 5886 5886 5885 5885 5885 5885 5884 5884 5884 5883 5883 5883 5883 5883 5883 5883 5882 5881 5881 5881 5880 5880
5909 5910 5909 5908 5908 5907 5906 5905 5904 5902 5902 5901 5900 5899 5898 5898 5897 5896 5895 5894 5893 5892 5891 5891 5890 5889 5888 5887 5887 5886 5886 5886 5885 5885 5885 5885 5885 5884 5884 5884 5884 5883 5883 5883 5882 5882 5882 5882 5882
5910 5912 5911 5911 5910 5908 5907 5906 5905 5904 5903 5903 5902 5901 5900 5900 5898 5897 5896 5896 5895 5894 5893 5892 5891 5890 5889 5889 5888 5888 5887 5887 5887 5886 5886 5886 5886 5885 5885 5885 5885 5884 5884 5884 5884 5884 5883 5883 5883
5912 5915 5913 5912 5912 5910 5909 5908 5907 5905 5904 5904 5903 5903 5902 5901 5900 5899 5898 5897 5896 5895 5894 5894 5893 5892 5891 5890 5890 5889 5889 5888 5888 5887 5887 5887 5887 5886 5886 5886 5886 5886 5885 5886 5886 5885 5885 5884 5884
5914 5916 5915 5914 5913 5912 5910 5909 5908 5907 5906 5906 5905 5905 5904 5903 5902 5901 5900 5899 5898 5897 5896 5895 5894 5893 5893 5892 5891 5890 5890 5889 5889 5888 5888 5888 5888 5887 5887 5887 5887 5886 5886 5886 5886 5886 5885 5885 5885
5916 5916 5916 5915 5914 5913 5912 5911 5910 5909 5909 5908 5907 5906 5905 5904 5903 5902 5901 5900 5899 5898 5897 5896 5895 5895 5894 5893 5892 5892 5891 5890 5890 5889 5889 5889 5889 5888 5888 5888 5888 5887 5887 5886 5886 5886 5886 5886 5885
5918 5917 5917 5916 5916 5915 5914 5913 5912 5911 5911 5910 5909 5908 5907 5906 5905 5904 5903 5902 5901 5900 5899 5898 5897 5896 5896 5895 5894 5893 5892 5892 5891 5890 5890 5890 5890 5890 5889 5889 5889 5888 5887 5887 5887 5887 5887 5886 5886
5919 5919 5918 5918 5917 5916 5916 5915 5914 5913 5912 5911 5911 5910 5909 5907 5906 5905 5904 5903 5902 5901 5900 5899 5898 5897 5897 5896 5895 5895 5894 5893 5892 5892 5891 5891 5891 5890 5890 5890 5889 5889 5888 5888 5888 5888 5888 5888 5887
5921 5920 5920 5919 5919 5918 5917 5917 5916 5915 5914 5913 5912 5911 5910 5909 5908 5906 5905 5904 5903 5902 5901 5900 5900 5899 5898 5897 5897 5896 5895 5894 5894 5893 5892 5892 5892 5891 5891 5890 5890 5890 5889 5889 5889 5888 5888 5888 5888
5922 5922 5922 5921 5920 5920 5919 5919 5918 5916 5915 5914 5913 5913 5912 5910 5909 5908 5907 5905 5904 5904 5903 5902 5901 5900 5899 5898 5898 5897 5896 5895 5895 5894 5894 5893 5893 5892 5892 5891 5891 5890 5890 5889 5889 5889 5888 5888 5888
5923 5924 5924 5923 5922 5921 5922 5921 5920 5918 5917 5916 5915 5914 5913 5912 5911 5909 5908 5907 5906 5905 5904 5903 5902 5901 5900 5899 5899 5898 5897 5896 5896 5895 5895 5894 5894 5893 5892 5892 5891 5891 5890 5890 5889 5889 5889 5888 5888
5924 5925 5925 5924 5923 5922 5922 5922 5920 5919 5918 5917 5916 5915 5914 5913 5912 5911 5909 5908 5907 5906 5905 5904 5903 5902 5901 5900 5899 5899 5898 5897 5897 5896 5896 5895 5894 5894 5893 5893 5892 5891 5891 5890 5889 5889 5889 5888 5888
5925 5926 5925 5925 5924 5923 5922 5922 5921 5920 5919 5918 5917 5916 5916 5915 5913 5912 5911 5909 5908 5907 5906 5905 5904 5903 5902 5901 5900 5900 5899 5899 5898 5897 5897 5896 5895 5894 5893 5893 5892 5891 5891 5890 5890 5889 5889 5888 5887
5924 5925 5925 5924 5923 5923 5923 5923 5922 5921 5920 5919 5918 5918 5917 5916 5914 5913 5912 5910 5909 5907 5907 5906 5905 5904 5903 5902 5901 5901 5900 5899 5899 5898 5897 5897 5896 5895 5894 5893 5892 5892 5891 5890 5889 5889 5888 5887 5886
5923 5924 5924 5924 5923 5923 5923 5923 5922 5921 5921 5920 5919 5918 5918 5917 5915 5914 5913 5911 5910 5908 5907 5906 5905 5905 5904 5903 5902 5902 5901 5900 5900 5899 5898 5897 5896 5895 5894 5894 5893 5892 5891 5890 5889 5888 5887 5886 5885
5922 5922 5923 5923 5922 5923 5923 5923 5922 5922 5921 5920 5919 5919 5918 5917 5916 5915 5913 5912 5910 5909 5907 5907 5906 5905 5904 5903 5903 5902 5902 5901 5900 5899 5898 5897 5896 5896 5895 5894 5893 5892 5891 5890 5889 5887 5886 5885 5883
5920 5921 5921 5922 5922 5923 5923 5924 5923 5921 5921 5920 5919 5919 5918 5917 5916 5915 5913 5912 5910 5909 5908 5907 5906 5905 5904 5904 5903 5903 5902 5901 5900 5899 5898 5897 5896 5895 5895 5894 5893 5891 5890 5889 5888 5886 5885 5883 5882
5919 5919 5919 5920 5921 5922 5922 5923 5923 5921 5920 5920 5919 5918 5917 5917 5916 5914 5913 5912 5911 5909 5908 5907 5906 5906 5905 5904 5903 5903 5902 5901 5900 5899 5898 5897 5896 5895 5894 5893 5892 5891 5889 5888 5887 5885 5884 5882 5880
5916 5917 5918 5918 5920 5921 5921 5922 5922 5920 5919 5919 5918 5917 5917 5916 5915 5914 5913 5912 5911 5910 5909 5908 5907 5905 5905 5904 5903 5903 5902 5901 5900 5899 5898 5897 5896 5894 5893 5892 5891 5890 5889 5887 5886 5884 5882 5880 5878
5914 5916 5918 5919 5920 5920 5919 5919 5919 5918 5918 5917 5917 5916 5916 5915 5914 5914 5913 5912 5911 5910 5909 5908 5907 5905 5904 5903 5903 5902 5901 5901 5900 5899 5898 5896 5895 5894 5892 5891 5890 5889 5887 5886 5884 5882 5880 5878 5876
5911 5914 5917 5919 5919 5919 5916 5916 5917 5916 5915 5915 5915 5914 5914 5914 5913 5913 5912 5911 5910 5909 5908 5907 5906 5905 5903 5902 5902 5901 5901 5900 5899 5898 5897 5896 5894 5893 5891 5890 5889 5887 5885 5884 5882 5880 5878 5876 5874
5909 5910 5912 5914 5915 5916 5915 5914 5913 5913 5913 5913 5913 5912 5912 5912 5912 5911 5910 5909 5909 5908 5907 5906 5905 5904 5902 5901 5901 5900 5900 5899 5898 5897 5896 5894 5893 5891 5890 5888 5887 5885 5883 5881 5879 5877 5875 5873 5871
5906 5907 5909 5910 5911 5913 5913 5912 5911 5910 5910 5910 5910 5910 5910 5909 5909 5909 5908 5908 5907 5906 5906 5905 5903 5902 5901 5900 5899 5899 5898 5898 5896 5895 5894 5893 5891 5890 5888 5886 5884 5882 5880 5878 5876 5874 5871 5869 5867
5902 5904 5905 5906 5907 5910 5911 5912 5908 5907 5907 5907 5907 5907 5907 5907 5906 5906 5906 5905 5905 5904 5904 5903 5901 5901 5900 5899 5898 5897 5897 5896 5894 5893 5892 5891 5889 5887 5886 5883 5881 5879 5877 5875 5872 5870 5868 5865 5863
5898 5899 5901 5903 5903 5904 5906 5909 5904 5904 5904 5904 5904 5904 5904 5904 5903 5903 5903 5902 5902 5902 5901 5901 5899 5898 5897 5897 5896 5895 5894 5894 5893 5891 5890 5888 5887 5885 5883 5881 5878 5876 5874 5871 5869 5866 5864 5861 5859